[Date Prev][Date Next][Thread Prev][Thread Next] - [Date Index][Thread Index][Author Index]
2 Line ISS Keps & SUITSAT Keps 2-9
- Subject: [sarex] 2 Line ISS Keps & SUITSAT Keps 2-9
- From: "Dave Larsen PhD" <doc@xxxxxxxxxxx>
- Date: Wed, 8 Feb 2006 18:35:31 -0800
ISS
1 25544U 98067A 06039.83807870 .00012556 00000-0 88091-4 0 3127
2 25544 051.6432 127.5609 0008779 252.5379 268.6411 15.74598233412931
SUITSAT
1 28933U 05035C 06038.72999458 +.00030321 +00000-0 +20318-3 0 00096
2 28933 051.6454 133.2533 0007640 245.8821 114.1303 15.74949355000600
----
Via the sarex mailing list at AMSAT.ORG courtesy of AMSAT-NA.
To unsubscribe, send "unsubscribe sarex" to Majordomo@amsat.org
AMSAT Home